#�ϑ�����,���ϕ���,���ϕ���,�ő啗��,�ő啗����������,�ő�u�ԕ���,�ő�u�ԕ�����������
#(�N����),(m/s)   ,(16����),(m/s)   ,(16����)        ,(m/s)       ,(16����)            
2015/6/4 0:01,0.7,8,0.7,4,1.5,9
2015/6/4 0:02,0.6,8,0.7,4,1.1,8
2015/6/4 0:03,0.7,8,0.7,4,2,8
2015/6/4 0:04,0.8,8,0.8,5,2,8
2015/6/4 0:05,0.8,8,0.8,5,1,7
2015/6/4 0:06,0.7,8,0.8,6,0.1,9
2015/6/4 0:07,0.8,8,0.8,8,1.5,8
2015/6/4 0:08,0.8,8,0.8,8,1.8,9
2015/6/4 0:09,0.9,8,0.9,8,1.8,9
2015/6/4 0:10,0.9,8,0.9,8,2.1,8
2015/6/4 0:11,1,8,1,8,1.6,8
2015/6/4 0:12,1,8,1,8,1.3,8
2015/6/4 0:13,1,9,1,8,1.3,10
2015/6/4 0:14,1,9,1,8,3.2,13
2015/6/4 0:15,1.1,9,1.1,9,3,14
2015/6/4 0:16,1.2,10,1.2,9,1,1
2015/6/4 0:17,1.2,9,1.2,9,2,3
2015/6/4 0:18,1.2,9,1.2,9,2.1,4
2015/6/4 0:19,1.2,7,1.2,9,1.9,5
2015/6/4 0:20,1.2,5,1.2,9,1.8,4
2015/6/4 0:21,1.2,3,1.2,9,1.3,6
2015/6/4 0:22,1.1,2,1.2,9,0.9,16
2015/6/4 0:23,1,2,1.1,9,0.8,16
2015/6/4 0:24,1,2,1,9,0.8,1
2015/6/4 0:25,0.8,3,0.9,9,0.8,4
2015/6/4 0:26,0.8,3,0.8,9,1.1,3
2015/6/4 0:27,0.7,3,0.8,9,1.3,3
2015/6/4 0:28,0.7,3,0.7,9,1.8,3
2015/6/4 0:29,0.6,2,0.7,7,1.3,3
2015/6/4 0:30,0.6,2,0.6,5,1.8,4
2015/6/4 0:31,0.7,2,0.7,3,1.8,3
2015/6/4 0:32,0.7,3,0.7,2,1.4,2
2015/6/4 0:33,0.8,2,0.8,2,1.5,1
2015/6/4 0:34,0.9,2,0.9,2,1.8,16
2015/6/4 0:35,1,2,1,2,1.9,1
2015/6/4 0:36,1.1,2,1.1,2,2.7,2
2015/6/4 0:37,1.2,2,1.2,2,2.7,3
2015/6/4 0:38,1.1,2,1.2,2,1.6,4
2015/6/4 0:39,1.1,2,1.1,2,0.8,3
2015/6/4 0:40,1,2,1.1,2,0.4,1
2015/6/4 0:41,0.9,2,1,2,1,1
2015/6/4 0:42,0.9,2,0.9,2,1,1
2015/6/4 0:43,0.8,2,0.9,2,1,2
2015/6/4 0:44,0.8,2,0.8,2,1.3,4
2015/6/4 0:45,0.8,2,0.8,2,1.5,5
2015/6/4 0:46,0.8,3,0.8,2,1.4,4
2015/6/4 0:47,0.6,3,0.7,2,1,3
2015/6/4 0:48,0.6,3,0.6,2,0.5,11
2015/6/4 0:49,0.6,3,0.6,2,0.9,11
2015/6/4 0:50,0.6,3,0.6,2,0.5,4
2015/6/4 0:51,0.6,3,0.6,2,0.9,10
2015/6/4 0:52,0.7,5,0.7,2,1.5,12
2015/6/4 0:53,0.7,8,0.7,2,1.6,9
2015/6/4 0:54,0.8,9,0.8,2,3.8,8
2015/6/4 0:55,0.8,10,0.8,2,2.4,12
2015/6/4 0:56,0.8,10,0.8,9,1.8,12
2015/6/4 0:57,0.8,10,0.8,9,2,8
2015/6/4 0:58,0.9,10,0.9,10,1.6,8
2015/6/4 0:59,0.9,10,0.9,10,0.5,4
2015/6/4 1:00,0.9,10,0.9,10,0.6,11
2015/6/4 1:01,0.9,10,0.9,10,0.6,11
2015/6/4 1:02,1,10,1,10,3.8,10
2015/6/4 1:03,1.2,10,1.2,10,5.5,9
2015/6/4 1:04,1.3,10,1.3,10,5.4,1
2015/6/4 1:05,1.3,9,1.3,10,3,5
2015/6/4 1:06,1.3,8,1.3,10,1.4,5
2015/6/4 1:07,1.3,8,1.3,10,1,15
2015/6/4 1:08,1.2,9,1.3,10,0.8,9
2015/6/4 1:09,1.3,12,1.3,10,1.1,13
2015/6/4 1:10,1.4,15,1.4,14,1.6,15
2015/6/4 1:11,1.4,15,1.4,14,1,11
2015/6/4 1:12,1.3,16,1.4,14,2.2,1
2015/6/4 1:13,1.1,16,1.3,14,2.1,1
2015/6/4 1:14,0.9,16,1.1,14,1.1,2
2015/6/4 1:15,0.7,15,0.9,14,0.5,2
2015/6/4 1:16,0.6,15,0.7,14,0.3,6
2015/6/4 1:17,0.6,15,0.6,14,0.3,6
2015/6/4 1:18,0.6,16,0.6,14,0.8,3
2015/6/4 1:19,0.6,1,0.6,14,1.1,3
2015/6/4 1:20,0.6,2,0.6,15,1.6,7
2015/6/4 1:21,0.6,3,0.6,15,1.4,7
2015/6/4 1:22,0.5,4,0.6,16,1.3,7
2015/6/4 1:23,0.4,3,0.5,16,0.6,14
2015/6/4 1:24,0.4,4,0.4,16,1.5,6
2015/6/4 1:25,0.4,4,0.4,15,1.5,7
2015/6/4 1:26,0.5,5,0.5,15,0.3,7
2015/6/4 1:27,0.5,5,0.5,15,1.8,11
2015/6/4 1:28,0.6,6,0.6,16,2,12
2015/6/4 1:29,0.6,9,0.6,1,2.4,13
2015/6/4 1:30,0.6,12,0.6,3,1,2
2015/6/4 1:31,0.8,13,0.8,13,3.9,4
2015/6/4 1:32,1,13,1,13,3.1,5
2015/6/4 1:33,1.1,8,1.1,8,2.2,7
2015/6/4 1:34,1,7,1.1,8,0.8,8
2015/6/4 1:35,1,6,1,8,0.5,2
2015/6/4 1:36,1.1,7,1.1,8,1.8,8
2015/6/4 1:37,1.1,7,1.1,8,2.1,8
2015/6/4 1:38,1.2,6,1.2,7,2.2,8
2015/6/4 1:39,1.1,6,1.1,7,1.8,2
2015/6/4 1:40,1.2,6,1.2,7,2.1,8
2015/6/4 1:41,1,6,1.3,6,2,7
2015/6/4 1:42,0.9,7,1,6,1.4,7
2015/6/4 1:43,0.9,7,0.9,6,1.9,9
2015/6/4 1:44,1,7,1,6,2,9
2015/6/4 1:45,1,7,1,6,1.3,5
2015/6/4 1:46,1.1,7,1.1,6,1.6,6
2015/6/4 1:47,1.1,7,1.1,6,1.4,5
2015/6/4 1:48,1,6,1,6,1.4,3
2015/6/4 1:49,1,6,1,6,1.4,4
2015/6/4 1:50,0.9,5,1,6,1.8,1
2015/6/4 1:51,0.9,4,0.9,7,1.5,1
2015/6/4 1:52,0.9,4,0.9,7,1.1,8
2015/6/4 1:53,0.9,3,0.9,7,1,16
2015/6/4 1:54,0.8,3,0.8,7,0.6,1
2015/6/4 1:55,0.8,3,0.8,7,1,9
2015/6/4 1:56,0.7,2,0.8,7,2.6,8
2015/6/4 1:57,0.7,2,0.7,7,1.9,9
2015/6/4 1:58,0.7,3,0.8,6,2.2,9
2015/6/4 1:59,0.7,5,0.7,6,1.5,8
2015/6/4 2:00,0.7,7,0.7,5,1,9
2015/6/4 2:01,0.6,8,0.6,4,1.1,14
2015/6/4 2:02,0.6,10,0.6,4,1.3,14
2015/6/4 2:03,0.6,9,0.7,3,1.1,10
2015/6/4 2:04,0.7,9,0.7,3,1.8,6
2015/6/4 2:05,0.8,8,0.8,3,3,7
2015/6/4 2:06,0.9,8,0.9,8,3,6
2015/6/4 2:07,1,8,1,8,3.1,5
2015/6/4 2:08,1,8,1,8,1.8,11
2015/6/4 2:09,1,9,1,8,1.5,12
2015/6/4 2:10,1.1,9,1.1,9,3.9,8
2015/6/4 2:11,1.2,9,1.2,9,4.1,8
2015/6/4 2:12,1.2,8,1.2,9,2.2,16
2015/6/4 2:13,1.2,8,1.2,9,0.8,5
2015/6/4 2:14,1.2,7,1.2,9,1.9,6
2015/6/4 2:15,1.1,7,1.2,9,1.9,6
2015/6/4 2:16,1,7,1.1,9,1.4,4
2015/6/4 2:17,0.9,7,1,9,1.3,1
2015/6/4 2:18,0.8,6,0.9,9,1.3,2
2015/6/4 2:19,0.8,5,0.8,9,0.5,3
2015/6/4 2:20,0.8,4,0.8,9,2,1
2015/6/4 2:21,0.7,4,0.7,9,1.9,2
2015/6/4 2:22,0.8,4,0.8,8,2.4,8
2015/6/4 2:23,0.9,4,0.9,8,2.1,1
2015/6/4 2:24,0.8,4,0.8,7,1.3,1
2015/6/4 2:25,0.7,3,0.8,7,0.9,14
2015/6/4 2:26,0.6,2,0.7,7,0.8,5
2015/6/4 2:27,0.7,2,0.7,6,1.1,1
2015/6/4 2:28,0.7,2,0.7,4,1.3,16
2015/6/4 2:29,0.7,2,0.7,4,0.5,15
2015/6/4 2:30,0.6,1,0.7,4,1.3,14
2015/6/4 2:31,0.6,16,0.6,4,1.3,12
2015/6/4 2:32,0.6,16,0.6,4,1.9,16
2015/6/4 2:33,0.6,16,0.6,4,1.6,1
2015/6/4 2:34,0.6,1,0.6,4,1.6,4
2015/6/4 2:35,0.8,1,0.8,1,2.1,5
2015/6/4 2:36,0.9,2,0.9,2,2.6,6
2015/6/4 2:37,1,3,1,2,2.5,8
2015/6/4 2:38,1.1,2,1.1,2,3.1,1
2015/6/4 2:39,1.1,2,1.1,2,1.8,14
2015/6/4 2:40,1.1,3,1.1,2,1.1,8
2015/6/4 2:41,1.1,3,1.1,2,1.3,4
2015/6/4 2:42,1,4,1.1,2,1.3,15
2015/6/4 2:43,1,5,1,2,1.6,11
2015/6/4 2:44,1,5,1,2,1,4
2015/6/4 2:45,0.9,5,1,2,1.6,4
2015/6/4 2:46,0.9,4,0.9,2,2.5,4
2015/6/4 2:47,0.9,4,0.9,2,2.7,5
2015/6/4 2:48,1,5,1,2,2.9,5
2015/6/4 2:49,1.2,5,1.2,5,2.9,5
2015/6/4 2:50,1.2,5,1.2,5,2.1,5
2015/6/4 2:51,1.2,5,1.2,5,1,11
2015/6/4 2:52,1.2,5,1.2,5,0.5,8
2015/6/4 2:53,1.2,5,1.2,5,2.6,16
2015/6/4 2:54,1.3,5,1.3,5,2.7,16
2015/6/4 2:55,1.2,5,1.3,5,1,15
2015/6/4 2:56,1.1,5,1.2,5,1.5,6
2015/6/4 2:57,1.1,4,1.1,5,1.9,3
2015/6/4 2:58,0.9,3,1.1,5,1.4,3
2015/6/4 2:59,0.8,3,0.9,5,0.9,1
2015/6/4 3:00,0.8,1,0.8,5,1.9,16
2015/6/4 3:01,0.8,2,0.8,5,1.5,16
2015/6/4 3:02,0.9,1,0.9,5,1.6,16
2015/6/4 3:03,0.9,1,0.9,5,1.1,15
2015/6/4 3:04,0.9,1,0.9,4,2.4,16
2015/6/4 3:05,1,1,1,5,2.2,16
2015/6/4 3:06,0.9,16,1,5,0.8,15
2015/6/4 3:07,0.7,16,0.9,4,0.1,9
2015/6/4 3:08,0.7,16,0.7,1,0.9,2
2015/6/4 3:09,0.9,16,0.9,1,3,1
2015/6/4 3:10,0.9,16,0.9,1,2.4,15
2015/6/4 3:11,0.9,16,0.9,1,1.1,8
2015/6/4 3:12,0.8,16,0.9,1,1,7
2015/6/4 3:13,0.9,1,0.9,1,2.5,1
2015/6/4 3:14,0.9,1,0.9,1,3.1,15
2015/6/4 3:15,0.9,1,0.9,1,2.9,16
2015/6/4 3:16,0.9,1,0.9,16,1,6
2015/6/4 3:17,1,1,1,1,1.4,6
2015/6/4 3:18,1.1,2,1.1,1,1.6,3
2015/6/4 3:19,1.1,3,1.2,2,1.9,6
2015/6/4 3:20,1,4,1.1,2,1.6,7
2015/6/4 3:21,1,4,1,2,0.6,2
2015/6/4 3:22,1,4,1,2,0.5,13
2015/6/4 3:23,0.9,4,1,2,1.1,11
2015/6/4 3:24,0.8,6,0.9,2,1.4,10
2015/6/4 3:25,0.7,7,0.8,2,0.6,9
2015/6/4 3:26,0.7,6,0.7,2,1.4,4
2015/6/4 3:27,0.7,7,0.7,2,1,4
2015/6/4 3:28,0.6,7,0.7,2,1.1,8
2015/6/4 3:29,0.5,9,0.6,3,1,16
2015/6/4 3:30,0.6,11,0.6,4,1.5,15
2015/6/4 3:31,0.6,12,0.6,4,1,14
2015/6/4 3:32,0.6,12,0.6,4,1.5,7
2015/6/4 3:33,0.6,11,0.6,5,1.5,7
2015/6/4 3:34,0.6,2,0.6,6,1.1,3
2015/6/4 3:35,0.7,1,0.7,7,1.3,12
2015/6/4 3:36,0.7,14,0.7,6,1.3,12
2015/6/4 3:37,0.8,15,0.8,15,2.5,1
2015/6/4 3:38,0.9,15,0.9,15,2.4,1
2015/6/4 3:39,0.9,16,0.9,15,1.9,15
2015/6/4 3:40,0.9,16,1,16,1.3,16
2015/6/4 3:41,1,16,1,16,1.3,15
2015/6/4 3:42,1.1,16,1.1,16,2.1,16
2015/6/4 3:43,1.1,15,1.1,16,1.8,16
2015/6/4 3:44,1.2,15,1.2,15,2.5,16
2015/6/4 3:45,1.4,15,1.4,15,3.2,15
2015/6/4 3:46,1.4,15,1.4,15,2.1,16
2015/6/4 3:47,1.3,15,1.4,15,1.3,15
2015/6/4 3:48,1.2,15,1.3,15,1.3,1
2015/6/4 3:49,1.2,15,1.2,15,1.1,16
2015/6/4 3:50,1.2,16,1.2,15,2.2,15
2015/6/4 3:51,1.4,16,1.4,15,3,15
2015/6/4 3:52,1.4,16,1.4,15,2.4,16
2015/6/4 3:53,1.3,16,1.4,15,1.5,1
2015/6/4 3:54,1.2,16,1.3,15,1.4,16
2015/6/4 3:55,1.1,16,1.1,15,2.4,16
2015/6/4 3:56,1.1,16,1.1,16,2.7,16
2015/6/4 3:57,1.1,16,1.2,16,1.4,16
2015/6/4 3:58,1.2,16,1.2,16,1.5,15
2015/6/4 3:59,1.1,16,1.2,16,1,15
2015/6/4 4:00,1,16,1.1,16,1.6,1
2015/6/4 4:01,0.9,16,1,16,1.8,16
2015/6/4 4:02,0.8,16,0.9,16,0.8,16
2015/6/4 4:03,0.8,16,0.8,16,0.6,7
2015/6/4 4:04,0.8,16,0.8,16,1.4,8
2015/6/4 4:05,0.8,16,0.8,16,1.6,8
2015/6/4 4:06,0.6,16,0.8,16,0.9,12
2015/6/4 4:07,0.7,16,0.7,16,3,16
2015/6/4 4:08,0.8,16,0.8,16,3,14
2015/6/4 4:09,0.9,1,0.9,16,2.4,11
2015/6/4 4:10,0.9,1,0.9,16,1.3,8
2015/6/4 4:11,1,1,1,1,3.6,16
2015/6/4 4:12,1.1,1,1.1,1,3,1
2015/6/4 4:13,1.2,1,1.2,1,1.3,2
2015/6/4 4:14,1.2,16,1.2,1,1.1,14
2015/6/4 4:15,1.2,16,1.2,1,1,12
2015/6/4 4:16,1.2,16,1.2,1,2.1,1
2015/6/4 4:17,1.2,16,1.3,16,2.2,16
2015/6/4 4:18,1,1,1.2,16,0.8,1
2015/6/4 4:19,1,1,1,16,1.1,15
2015/6/4 4:20,1.1,16,1.1,16,1.5,15
2015/6/4 4:21,0.9,16,1.1,16,1,13
2015/6/4 4:22,0.7,16,0.9,16,0.6,2
2015/6/4 4:23,0.7,16,0.7,16,1.5,15
2015/6/4 4:24,0.8,16,0.8,16,1.8,15
2015/6/4 4:25,0.8,16,0.8,16,1.8,15
2015/6/4 4:26,0.9,16,0.9,16,1.9,8
2015/6/4 4:27,0.8,16,0.9,16,1.8,8
2015/6/4 4:28,0.8,16,0.8,16,0.8,16
2015/6/4 4:29,0.8,16,0.8,16,0.6,3
2015/6/4 4:30,0.7,1,0.7,16,1,2
2015/6/4 4:31,0.8,1,0.8,16,1.5,15
2015/6/4 4:32,0.8,1,0.8,16,1.6,15
2015/6/4 4:33,0.7,1,0.8,16,0.5,1
2015/6/4 4:34,0.6,2,0.7,16,0.9,7
2015/6/4 4:35,0.6,3,0.6,16,1.3,14
2015/6/4 4:36,0.6,2,0.6,16,2,14
2015/6/4 4:37,0.6,1,0.6,16,1.8,14
2015/6/4 4:38,0.6,16,0.6,16,0.5,14
2015/6/4 4:39,0.6,16,0.6,1,1.3,1
2015/6/4 4:40,0.7,16,0.7,1,2.1,1
2015/6/4 4:41,0.7,16,0.7,1,1.3,2
2015/6/4 4:42,0.7,16,0.7,1,1.5,2
2015/6/4 4:43,0.8,16,0.8,16,2.7,2
2015/6/4 4:44,0.9,16,0.9,16,1.9,16
2015/6/4 4:45,0.9,16,0.9,16,1.5,16
2015/6/4 4:46,0.9,16,0.9,16,1.3,16
2015/6/4 4:47,0.9,16,0.9,16,1.4,14
2015/6/4 4:48,1,16,1,16,1.6,15
2015/6/4 4:49,1,16,1,16,1.4,16
2015/6/4 4:50,1,16,1,16,1.9,1
2015/6/4 4:51,1.1,16,1.1,16,1.8,1
2015/6/4 4:52,1.1,16,1.2,16,1.9,1
2015/6/4 4:53,1,16,1.1,16,1.3,1
2015/6/4 4:54,1,16,1,16,1.3,14
2015/6/4 4:55,1,16,1,16,1.6,15
2015/6/4 4:56,1,16,1,16,2,16
2015/6/4 4:57,1.1,16,1.1,16,2.1,15
2015/6/4 4:58,1,16,1,16,0.6,16
2015/6/4 4:59,1,16,1,16,1.5,16
2015/6/4 5:00,1,16,1,16,1.9,15
2015/6/4 5:01,0.9,16,0.9,16,1.5,15
2015/6/4 5:02,0.8,16,0.9,16,0.9,1
2015/6/4 5:03,0.8,16,0.8,16,0.3,2
2015/6/4 5:04,0.7,16,0.8,16,0.5,1
2015/6/4 5:05,0.6,16,0.7,16,1,16
2015/6/4 5:06,0.5,16,0.6,16,1,16
2015/6/4 5:07,0.5,16,0.5,16,1.4,16
2015/6/4 5:08,0.6,16,0.6,16,1.5,1
2015/6/4 5:09,0.6,1,0.6,16,1.6,1
2015/6/4 5:10,0.7,1,0.7,16,2.4,16
2015/6/4 5:11,0.7,1,0.7,16,1.4,2
2015/6/4 5:12,0.7,1,0.7,16,1.5,2
2015/6/4 5:13,0.8,1,0.8,16,1.4,2
2015/6/4 5:14,0.9,1,0.9,1,1,4
2015/6/4 5:15,0.9,1,0.9,1,0.9,15
2015/6/4 5:16,0.9,1,0.9,1,0.5,1
2015/6/4 5:17,0.9,1,0.9,1,1.8,11
2015/6/4 5:18,0.9,16,0.9,1,1.6,16
2015/6/4 5:19,0.9,16,0.9,1,1.9,16
2015/6/4 5:20,0.8,16,0.9,1,1.6,16
2015/6/4 5:21,0.9,16,0.9,1,1.9,16
2015/6/4 5:22,0.9,16,0.9,1,1.3,15
2015/6/4 5:23,0.9,15,0.9,1,1.9,1
2015/6/4 5:24,1,15,1,15,2.5,2
2015/6/4 5:25,1.1,15,1.1,15,1.8,16
2015/6/4 5:26,1.2,15,1.2,15,1.5,15
2015/6/4 5:27,1.2,16,1.2,15,1.1,15
2015/6/4 5:28,1.2,16,1.2,15,2,1
2015/6/4 5:29,1.2,16,1.2,15,1.8,1
2015/6/4 5:30,1.1,16,1.2,15,1,2
2015/6/4 5:31,1.1,16,1.1,15,1.4,15
2015/6/4 5:32,1.1,16,1.1,15,1.8,16
2015/6/4 5:33,1,16,1.1,15,1.1,16
2015/6/4 5:34,1,16,1,15,1.5,1
2015/6/4 5:35,1,16,1,15,1.9,2
2015/6/4 5:36,1,1,1,15,1.6,16
2015/6/4 5:37,0.9,1,1,16,1.4,15
2015/6/4 5:38,0.9,1,0.9,16,1.8,16
2015/6/4 5:39,1,1,1,16,3.1,16
2015/6/4 5:40,1.2,16,1.2,16,2.4,16
2015/6/4 5:41,1.1,16,1.2,16,1.1,14
2015/6/4 5:42,1,16,1.1,16,0.3,12
2015/6/4 5:43,1,16,1,16,0,12
2015/6/4 5:44,0.9,15,0.9,16,0.5,1
2015/6/4 5:45,0.8,15,0.9,16,0.9,1
2015/6/4 5:46,0.7,15,0.8,16,0.6,16
2015/6/4 5:47,0.7,15,0.7,16,0.4,6
2015/6/4 5:48,0.5,14,0.7,16,0.1,9
2015/6/4 5:49,0.3,13,0.5,16,0.6,7
2015/6/4 5:50,0.2,10,0.3,16,1,5
2015/6/4 5:51,0.3,8,0.3,16,1.3,8
2015/6/4 5:52,0.4,8,0.4,16,1.5,10
2015/6/4 5:53,0.4,8,0.4,16,1.5,10
2015/6/4 5:54,0.4,7,0.5,15,0.5,8
2015/6/4 5:55,0.4,8,0.4,15,0.5,8
2015/6/4 5:56,0.4,8,0.4,15,0.4,7
2015/6/4 5:57,0.5,8,0.5,15,1.5,9
2015/6/4 5:58,0.6,8,0.6,8,1.6,9
2015/6/4 5:59,0.7,9,0.7,8,2,9
2015/6/4 6:00,0.6,9,0.7,8,1.1,8
2015/6/4 6:01,0.6,9,0.6,8,1,2
2015/6/4 6:02,0.6,8,0.6,8,0.9,2
2015/6/4 6:03,0.6,8,0.6,8,1.5,9
2015/6/4 6:04,0.7,9,0.7,8,1.8,10
2015/6/4 6:05,0.8,9,0.8,9,1.6,12
2015/6/4 6:06,0.9,10,0.9,10,1.4,13
2015/6/4 6:07,0.8,10,0.9,10,0.9,12
2015/6/4 6:08,0.8,10,0.8,10,1.3,8
2015/6/4 6:09,0.7,10,0.8,10,1.4,9
2015/6/4 6:10,0.7,10,0.7,10,0.8,7
2015/6/4 6:11,0.7,10,0.7,10,0.5,11
2015/6/4 6:12,0.7,10,0.7,10,0.4,9
2015/6/4 6:13,0.7,10,0.7,10,1.6,10
2015/6/4 6:14,0.7,10,0.7,10,2.2,8
2015/6/4 6:15,0.6,9,0.7,10,1.4,9
2015/6/4 6:16,0.6,9,0.6,10,0.8,6
2015/6/4 6:17,0.6,8,0.6,10,1.5,7
2015/6/4 6:18,0.6,8,0.6,10,1.6,6
2015/6/4 6:19,0.6,8,0.6,10,1,10
2015/6/4 6:20,0.6,9,0.6,10,0.6,11
2015/6/4 6:21,0.7,9,0.7,10,1.1,11
2015/6/4 6:22,0.8,9,0.8,9,1.5,11
2015/6/4 6:23,0.8,9,0.8,9,1.9,9
2015/6/4 6:24,0.7,9,0.8,9,1.6,9
2015/6/4 6:25,0.8,9,0.8,9,1.9,10
2015/6/4 6:26,0.9,9,0.9,9,2.2,9
2015/6/4 6:27,0.9,9,0.9,9,1.6,7
2015/6/4 6:28,0.9,9,0.9,9,1,7
2015/6/4 6:29,0.8,9,0.9,9,0.6,5
2015/6/4 6:30,0.9,9,0.9,9,1.3,9
2015/6/4 6:31,0.9,9,0.9,9,2.2,9
2015/6/4 6:32,1,9,1,9,2.2,9
2015/6/4 6:33,0.9,9,1,9,1.5,9
2015/6/4 6:34,0.9,9,0.9,9,1.4,9
2015/6/4 6:35,0.9,8,1,9,1.6,9
2015/6/4 6:36,0.9,8,0.9,9,1.4,10
2015/6/4 6:37,0.9,9,0.9,9,1.5,7
2015/6/4 6:38,0.9,9,0.9,9,1.1,9
2015/6/4 6:39,1,9,1,9,1.6,5
2015/6/4 6:40,1,8,1,9,1.4,5
2015/6/4 6:41,0.9,8,1,9,0.8,4
2015/6/4 6:42,0.8,8,0.9,9,1.9,10
2015/6/4 6:43,0.8,8,0.8,9,1.8,8
2015/6/4 6:44,0.8,7,0.8,9,1.8,8
2015/6/4 6:45,0.8,7,0.8,9,0.8,8
2015/6/4 6:46,0.7,7,0.8,9,0.3,10
2015/6/4 6:47,0.7,7,0.7,9,2.1,9
2015/6/4 6:48,0.7,7,0.7,9,1,10
2015/6/4 6:49,0.6,8,0.7,9,1.1,9
2015/6/4 6:50,0.7,9,0.7,8,3,9
2015/6/4 6:51,0.8,9,0.8,8,2.9,9
2015/6/4 6:52,0.8,9,0.8,8,2,9
2015/6/4 6:53,0.9,9,0.9,9,2.4,8
2015/6/4 6:54,1,9,1,9,2.2,7
2015/6/4 6:55,1.1,9,1.1,9,2.5,8
2015/6/4 6:56,1.3,9,1.3,9,3.1,9
2015/6/4 6:57,1.4,9,1.4,9,2.7,10
2015/6/4 6:58,1.5,9,1.5,9,2.9,9
2015/6/4 6:59,1.6,9,1.6,9,3,9
2015/6/4 7:00,1.7,9,1.7,9,2.9,12
2015/6/4 7:01,1.8,9,1.8,9,4.3,9
2015/6/4 7:02,1.9,9,1.9,9,3.5,8
2015/6/4 7:03,1.8,10,1.9,9,2.9,10
2015/6/4 7:04,1.7,10,1.8,9,1.4,9
2015/6/4 7:05,1.6,10,1.7,9,1.6,9
2015/6/4 7:06,1.5,10,1.6,9,2.1,9
2015/6/4 7:07,1.6,10,1.6,9,3.6,9
2015/6/4 7:08,1.6,10,1.6,9,3.8,9
2015/6/4 7:09,1.6,10,1.6,9,3.2,10
2015/6/4 7:10,1.6,10,1.6,9,3,8
2015/6/4 7:11,1.5,10,1.6,9,3.2,9
2015/6/4 7:12,1.4,9,1.5,9,2,8
2015/6/4 7:13,1.5,9,1.5,10,2.9,9
2015/6/4 7:14,1.6,9,1.6,10,3,10
2015/6/4 7:15,1.7,9,1.7,9,3.1,10
2015/6/4 7:16,1.8,9,1.8,9,3.2,10
2015/6/4 7:17,1.6,9,1.7,9,2.4,10
2015/6/4 7:18,1.5,10,1.6,9,2.2,10
2015/6/4 7:19,1.4,10,1.5,9,2.2,7
2015/6/4 7:20,1.4,9,1.4,9,2.9,9
2015/6/4 7:21,1.4,9,1.4,9,1.9,7
2015/6/4 7:22,1.4,9,1.4,9,2.5,9
2015/6/4 7:23,1.3,9,1.4,9,2,8
2015/6/4 7:24,1.3,9,1.3,9,2.4,8
2015/6/4 7:25,1.2,9,1.3,9,2.2,9
2015/6/4 7:26,1.2,9,1.2,9,2.1,6
2015/6/4 7:27,1.2,9,1.2,9,3,7
2015/6/4 7:28,1.2,9,1.2,10,1.3,11
2015/6/4 7:29,1.2,9,1.3,10,2.4,8
2015/6/4 7:30,1.1,9,1.2,9,2.9,9
2015/6/4 7:31,1.2,9,1.2,9,1.6,12
2015/6/4 7:32,1.3,9,1.3,9,3.6,9
2015/6/4 7:33,1.3,9,1.3,9,2.7,9
2015/6/4 7:34,1.3,9,1.3,9,2.2,9
2015/6/4 7:35,1.4,9,1.4,10,2.5,9
2015/6/4 7:36,1.5,10,1.5,10,3.3,9
2015/6/4 7:37,1.5,10,1.5,10,1.9,15
2015/6/4 7:38,1.6,10,1.6,10,4.1,9
2015/6/4 7:39,1.6,10,1.7,10,4.3,10
2015/6/4 7:40,1.6,10,1.6,10,2,12
2015/6/4 7:41,1.5,10,1.6,10,1.3,12
2015/6/4 7:42,1.5,11,1.5,10,2.6,9
2015/6/4 7:43,1.5,11,1.5,10,2.5,9
2015/6/4 7:44,1.5,10,1.5,10,2.7,9
2015/6/4 7:45,1.4,10,1.5,10,2.4,9
2015/6/4 7:46,1.4,10,1.4,10,3.1,9
2015/6/4 7:47,1.5,10,1.5,10,2.7,8
2015/6/4 7:48,1.5,10,1.5,10,3.7,9
2015/6/4 7:49,1.5,9,1.5,10,2.6,8
2015/6/4 7:50,1.4,9,1.5,10,1.1,8
2015/6/4 7:51,1.5,9,1.5,10,1.6,10
2015/6/4 7:52,1.4,9,1.5,11,1.4,10
2015/6/4 7:53,1.4,9,1.4,11,3.2,9
2015/6/4 7:54,1.4,9,1.4,10,3.7,10
2015/6/4 7:55,1.4,9,1.5,10,3.8,8
2015/6/4 7:56,1.5,9,1.5,10,3.6,9
2015/6/4 7:57,1.6,9,1.6,9,3.6,9
2015/6/4 7:58,1.5,9,1.6,9,4.2,8
2015/6/4 7:59,1.5,9,1.5,9,1.9,11
2015/6/4 8:00,1.6,9,1.6,9,5,8
2015/6/4 8:01,1.8,9,1.8,9,4.8,8
2015/6/4 8:02,1.9,9,1.9,9,2.9,8
2015/6/4 8:03,1.9,9,1.9,9,3,9
2015/6/4 8:04,1.9,9,1.9,9,3.2,8
2015/6/4 8:05,1.9,9,1.9,9,3.8,9
2015/6/4 8:06,1.9,9,1.9,9,3.9,9
2015/6/4 8:07,2,9,2,9,4.9,9
2015/6/4 8:08,2,9,2,9,3.7,9
2015/6/4 8:09,2.1,9,2.1,9,3.2,8
2015/6/4 8:10,2.1,9,2.1,9,2.4,10
2015/6/4 8:11,2.1,8,2.1,9,3,8
2015/6/4 8:12,2,8,2.1,9,3.1,7
2015/6/4 8:13,2,8,2,9,3.7,10
2015/6/4 8:14,2,8,2,9,3.8,9
2015/6/4 8:15,1.9,8,2,9,2.5,9
2015/6/4 8:16,1.9,8,1.9,9,2.6,10
2015/6/4 8:17,1.8,9,1.8,9,4.4,10
2015/6/4 8:18,1.8,9,1.8,9,4.5,10
2015/6/4 8:19,1.7,9,1.7,9,2.5,8
2015/6/4 8:20,1.7,9,1.7,9,2.1,7
2015/6/4 8:21,1.6,9,1.7,8,2,6
2015/6/4 8:22,1.6,8,1.6,8,1.9,6
2015/6/4 8:23,1.6,8,1.6,8,2.4,6
2015/6/4 8:24,1.6,8,1.6,8,3.5,9
2015/6/4 8:25,1.7,8,1.7,8,3.8,7
2015/6/4 8:26,1.9,8,1.9,8,4.3,9
2015/6/4 8:27,1.9,8,1.9,8,3.5,9
2015/6/4 8:28,1.8,8,1.9,8,3.3,10
2015/6/4 8:29,1.9,8,1.9,8,4.2,11
2015/6/4 8:30,2,9,2,9,3.9,10
2015/6/4 8:31,2.2,9,2.2,9,4.5,11
2015/6/4 8:32,2.3,10,2.3,10,5.4,9
2015/6/4 8:33,2.4,10,2.4,10,5.1,10
2015/6/4 8:34,2.5,10,2.5,10,4.8,9
2015/6/4 8:35,2.5,10,2.5,10,4.2,6
2015/6/4 8:36,2.4,10,2.5,10,4.1,9
2015/6/4 8:37,2.5,10,2.5,10,5.4,10
2015/6/4 8:38,2.5,10,2.5,10,5.2,9
2015/6/4 8:39,2.6,10,2.6,10,4.8,10
2015/6/4 8:40,2.6,10,2.6,10,4.4,11
2015/6/4 8:41,2.5,10,2.7,10,4.3,10
2015/6/4 8:42,2.5,10,2.5,10,4.9,10
2015/6/4 8:43,2.5,10,2.5,10,4.7,15
2015/6/4 8:44,2.6,11,2.6,10,6.5,14
2015/6/4 8:45,2.8,11,2.8,11,8.5,15
2015/6/4 8:46,3.1,12,3.1,12,7,14
2015/6/4 8:47,3.1,13,3.2,12,7.8,15
2015/6/4 8:48,3.1,14,3.1,12,4.9,14
2015/6/4 8:49,3,14,3.1,12,3.3,13
2015/6/4 8:50,2.8,15,2.9,12,2.2,2
2015/6/4 8:51,2.8,15,2.8,12,3.7,12
2015/6/4 8:52,2.8,15,2.9,12,5.7,13
2015/6/4 8:53,2.8,15,2.9,12,3.1,12
2015/6/4 8:54,2.5,15,2.8,12,2.1,11
2015/6/4 8:55,2.5,15,2.5,12,8.5,15
2015/6/4 8:56,2.5,15,2.5,12,6.7,15
2015/6/4 8:57,2.6,15,2.6,13,8.6,16
2015/6/4 8:58,2.8,14,2.8,14,8.7,12
2015/6/4 8:59,3.1,14,3.1,14,7.1,15
2015/6/4 9:00,3.1,14,3.1,14,3.5,15
2015/6/4 9:01,3.1,14,3.2,14,3.8,12
2015/6/4 9:02,2.9,14,3.1,14,2.6,15
2015/6/4 9:03,3,14,3,14,4.5,12
2015/6/4 9:04,3.3,14,3.3,14,7.1,16
2015/6/4 9:05,3.2,15,3.4,14,7.4,15
2015/6/4 9:06,3.4,14,3.4,14,9.5,10
2015/6/4 9:07,3.3,14,3.5,14,9.9,8
2015/6/4 9:08,3,14,3.3,14,3.3,8
2015/6/4 9:09,2.7,13,3,14,2.4,10
2015/6/4 9:10,2.7,13,2.7,14,3.6,13
2015/6/4 9:11,2.9,13,2.9,14,6.8,13
2015/6/4 9:12,3.3,13,3.3,14,6.9,13
2015/6/4 9:13,3.3,12,3.3,14,3.7,12
2015/6/4 9:14,3.1,12,3.3,14,3.9,12
2015/6/4 9:15,2.8,12,3,14,2.4,13
2015/6/4 9:16,2.4,12,2.8,14,2.6,13
2015/6/4 9:17,2.1,12,2.3,14,2.6,15
2015/6/4 9:18,2.3,12,2.3,13,5.2,13
2015/6/4 9:19,2.6,13,2.6,13,7.1,13
2015/6/4 9:20,2.9,12,2.9,13,6.1,12
2015/6/4 9:21,2.9,12,2.9,13,5.7,12
2015/6/4 9:22,2.6,12,2.8,13,4.8,7
2015/6/4 9:23,2.5,12,2.5,12,5.4,8
2015/6/4 9:24,2.7,12,2.7,12,7.6,10
2015/6/4 9:25,2.8,11,2.8,12,4.9,9
2015/6/4 9:26,3.2,11,3.2,11,6.8,10
2015/6/4 9:27,3.5,11,3.5,11,5.5,10
2015/6/4 9:28,3.6,11,3.6,11,6.4,11
2015/6/4 9:29,3.6,11,3.7,11,6.5,11
2015/6/4 9:30,3.6,10,3.6,11,7.2,8
2015/6/4 9:31,3.5,10,3.6,11,4.4,9
2015/6/4 9:32,3.6,10,3.6,11,5.8,8
2015/6/4 9:33,3.6,10,3.6,11,4.3,8
2015/6/4 9:34,3.6,10,3.7,11,6.4,9
2015/6/4 9:35,3.5,10,3.6,11,3.3,8
2015/6/4 9:36,3.2,10,3.4,11,3.2,10
2015/6/4 9:37,2.8,10,3.1,11,2.5,11
2015/6/4 9:38,2.5,10,2.8,11,3.8,15
2015/6/4 9:39,2.3,11,2.5,10,5.2,14
2015/6/4 9:40,2,11,2.2,10,3.7,12
2015/6/4 9:41,1.9,12,2,10,2.5,15
2015/6/4 9:42,1.9,13,1.9,10,3.5,14
2015/6/4 9:43,1.9,14,1.9,10,4.4,16
2015/6/4 9:44,2.2,15,2.2,10,9.8,16
2015/6/4 9:45,2.8,15,2.8,10,11.1,15
2015/6/4 9:46,3,15,3,10,8.7,1
2015/6/4 9:47,3.2,15,3.2,15,5.1,16
2015/6/4 9:48,3.2,15,3.2,15,3.1,16
2015/6/4 9:49,3.1,15,3.2,15,4.3,15
2015/6/4 9:50,3.3,16,3.3,15,5.2,16
2015/6/4 9:51,3.6,16,3.6,16,6.8,1
2015/6/4 9:52,4,16,4,16,11.6,16
2015/6/4 9:53,4.2,16,4.2,16,9.7,16
2015/6/4 9:54,3.8,16,4.1,16,7.2,15
2015/6/4 9:55,3.3,15,3.7,16,6.1,14
2015/6/4 9:56,3.4,15,3.4,16,9.1,16
2015/6/4 9:57,3.4,15,3.5,16,4.1,14
2015/6/4 9:58,3.7,15,3.7,16,12.2,15
2015/6/4 9:59,4.5,16,4.5,16,14.5,16
2015/6/4 10:00,4.7,16,4.7,16,10.2,1
2015/6/4 10:01,4.6,16,4.7,16,5.4,1
2015/6/4 10:02,4.1,16,4.5,16,4.7,16
2015/6/4 10:03,3.8,16,4,16,2.9,1
2015/6/4 10:04,3.8,16,3.8,16,5.4,11
2015/6/4 10:05,4.2,16,4.2,16,13.1,16
2015/6/4 10:06,4.5,16,4.5,16,12.2,16
2015/6/4 10:07,4.8,16,4.8,16,7.8,15
2015/6/4 10:08,4.6,16,4.8,16,6,16
2015/6/4 10:09,3.9,15,4.6,16,3.6,8
2015/6/4 10:10,3.5,15,3.8,16,2.6,12
2015/6/4 10:11,3.4,15,3.5,16,3.7,15
2015/6/4 10:12,3.4,14,3.4,16,6.1,15
2015/6/4 10:13,3.7,14,3.7,16,7.7,15
2015/6/4 10:14,3.8,14,3.8,16,5.8,15
2015/6/4 10:15,3.4,14,3.8,16,4.9,15
2015/6/4 10:16,2.7,14,3.3,16,4.1,16
2015/6/4 10:17,2.7,14,2.7,16,7.8,16
2015/6/4 10:18,2.8,14,2.8,16,7.6,15
2015/6/4 10:19,3,15,3,15,7.8,15
2015/6/4 10:20,3.4,15,3.4,14,10.6,15
2015/6/4 10:21,4.3,15,4.3,15,16.6,16
2015/6/4 10:22,4.8,15,4.8,15,10.7,15
2015/6/4 10:23,5.1,15,5.1,15,12.4,16
2015/6/4 10:24,5.2,16,5.2,15,7.9,16
2015/6/4 10:25,5.2,16,5.3,16,8.2,16
2015/6/4 10:26,5.8,16,5.8,16,10,15
2015/6/4 10:27,5.9,15,5.9,16,8.3,15
2015/6/4 10:28,5.9,16,5.9,16,7.1,1
2015/6/4 10:29,5.8,16,5.9,16,6.8,1
2015/6/4 10:30,5.7,16,5.9,16,7.7,1
2015/6/4 10:31,4.9,16,5.7,16,7.1,16
2015/6/4 10:32,4.5,16,4.9,16,4.2,12
2015/6/4 10:33,4.1,15,4.5,16,10.7,16
2015/6/4 10:34,4.3,15,4.3,16,12.1,15
2015/6/4 10:35,4.7,15,4.7,16,11.5,15
2015/6/4 10:36,4.6,15,4.7,16,9.1,16
2015/6/4 10:37,4.5,15,4.5,15,7.8,16
2015/6/4 10:38,4.4,15,4.6,16,6.7,14
2015/6/4 10:39,4.6,15,4.6,16,10.9,15
2015/6/4 10:40,4.8,15,4.8,16,13.4,15
2015/6/4 10:41,5.2,15,5.2,15,8.6,1
2015/6/4 10:42,5.4,15,5.4,15,11.5,15
2015/6/4 10:43,5.5,15,5.6,15,10.6,14
2015/6/4 10:44,5.2,15,5.4,15,7.2,16
2015/6/4 10:45,4.9,15,5.2,15,7.9,1
2015/6/4 10:46,4.6,15,4.8,15,7.8,16
2015/6/4 10:47,4.2,15,4.5,15,5.1,15
2015/6/4 10:48,4.1,16,4.2,15,3.6,4
2015/6/4 10:49,3.8,16,4.1,15,3.9,5
2015/6/4 10:50,3.3,1,3.7,15,3.5,3
2015/6/4 10:51,2.9,1,3.2,15,3.5,4
2015/6/4 10:52,2.5,1,2.9,15,2.1,13
2015/6/4 10:53,2.4,1,2.5,15,4.4,16
2015/6/4 10:54,2.3,1,2.4,15,5.6,16
2015/6/4 10:55,2.4,1,2.4,15,8.6,15
2015/6/4 10:56,2.7,1,2.7,15,10.9,15
2015/6/4 10:57,3.1,16,3.1,15,10,15
2015/6/4 10:58,3.6,15,3.6,16,11.8,14
2015/6/4 10:59,4,15,4,15,11.5,15
2015/6/4 11:00,4.6,15,4.6,15,12.7,15
2015/6/4 11:01,4.9,15,4.9,15,10.5,15
2015/6/4 11:02,5.4,15,5.4,15,11,16
2015/6/4 11:03,5.8,15,5.8,15,9.9,15
2015/6/4 11:04,6,15,6,15,8.6,14
2015/6/4 11:05,5.8,15,6,15,6,15
2015/6/4 11:06,5.5,15,5.8,15,6.7,15
2015/6/4 11:07,5.5,15,5.5,15,9.1,16
2015/6/4 11:08,5.2,15,5.4,15,7.9,14
2015/6/4 11:09,5.2,15,5.2,15,14.9,15
2015/6/4 11:10,5.2,15,5.3,15,14.3,15
2015/6/4 11:11,5.4,15,5.4,15,10.3,16
2015/6/4 11:12,5.3,15,5.5,15,10.1,16
2015/6/4 11:13,5.1,15,5.3,15,7.7,1
2015/6/4 11:14,5.1,15,5.2,15,8.4,14
2015/6/4 11:15,5.4,15,5.4,15,12.2,16
2015/6/4 11:16,5.7,15,5.7,15,9.2,16
2015/6/4 11:17,5.7,15,5.7,15,8.3,14
2015/6/4 11:18,6,15,6,15,11,16
2015/6/4 11:19,5.9,15,6,15,9.2,14
2015/6/4 11:20,5.5,15,5.8,15,7.8,14
2015/6/4 11:21,5.7,15,5.7,15,14,15
2015/6/4 11:22,5.6,15,5.7,15,9.7,14
2015/6/4 11:23,5.6,15,5.7,15,7.4,16
2015/6/4 11:24,5.3,15,5.6,15,3.5,16
2015/6/4 11:25,4.8,15,5.3,15,2.2,1
2015/6/4 11:26,4.8,15,4.8,15,11.5,14
2015/6/4 11:27,4.8,15,4.8,15,10.5,15
2015/6/4 11:28,4.8,15,4.8,15,11.4,15
2015/6/4 11:29,5,15,5,15,13.4,15
2015/6/4 11:30,5.4,15,5.5,15,10.3,16
2015/6/4 11:31,5.1,15,5.5,15,10.2,15
2015/6/4 11:32,4.9,15,5,15,9.7,15
2015/6/4 11:33,4.9,15,4.9,15,5.7,15
2015/6/4 11:34,5.2,15,5.2,15,10.8,16
2015/6/4 11:35,5.7,15,5.7,15,10,15
2015/6/4 11:36,5.8,15,6,15,11.7,15
2015/6/4 11:37,6.1,15,6.1,15,11.5,15
2015/6/4 11:38,6.1,15,6.2,15,11.3,15
2015/6/4 11:39,5.7,15,6.1,15,8.6,16